Hourly Data Report for October 31, 2014

All times are specified in Local Standard Time (LST). Add 1 hour to adjust for Daylight Saving Time where and when it is observed.

BATHURST A
NEW BRUNSWICK

47°37'47.000" N
65°44'20.000" W
58.80 m
8100505
71574
ZBF

Download Data

Hourly Data (October 2014)
Hourly Data Report for October 31, 2014
Temp Definition
°C
Dew Point Temp Definition
°C
Rel Hum Definition
%
Wind Dir Definition
10's deg

Wind Spd Definition
km/h
Visibility Definition
km
Stn Press Definition
kPa
Hmdx Definition


Wind Chill Definition


Weather Definition


TIME
00:00 Legend Double Dagger 3.0 -1.0 75 27 6 24.1 100.57     LegendNANA
01:00 Legend Double Dagger 2.9 -1.3 74 28 6 24.1 100.59     LegendNANA
02:00 Legend Double Dagger -0.6 -2.8 85 26 7 24.1 100.65   -3 Clear
03:00 Legend Double Dagger -0.4 -2.5 86 26 12 24.1 100.70   -4 LegendNANA
04:00 Legend Double Dagger -1.0 -2.9 87 26 11 24.1 100.77   -5 LegendNANA
05:00 Legend Double Dagger -1.0 -3.1 86 27 8 24.1 100.83   -4 Clear
06:00 Legend Double Dagger -0.2 -3.1 81 28 7 24.1 100.87   -3 LegendNANA
07:00 Legend Double Dagger 0.2 -2.7 81 27 9 24.1 100.91     LegendNANA
08:00 Legend Double Dagger 1.8 -2.0 76 27 14 24.1 100.99     Mainly Clear
09:00 Legend Double Dagger 3.5 -1.9 68 29 7 24.1 101.03     LegendNANA
10:00 Legend Double Dagger 4.9 -1.6 63 24 7 24.1 101.05     LegendNANA
11:00 Legend Double Dagger 6.3 -3.1 51 27 7 24.1 101.04     Mainly Clear
12:00 Legend Double Dagger 7.5 -3.1 47 27 13 24.1 101.01     LegendNANA
13:00 Legend Double Dagger 8.6 -2.4 46 29 10 24.1 101.00     LegendNANA
14:00 Legend Double Dagger 8.3 -4.2 41 29 18 24.1 101.01     Mostly Cloudy
15:00 Legend Double Dagger 8.4 -3.4 43 28 14 24.1 101.05     LegendNANA
16:00 Legend Double Dagger 6.0 -3.6 50 27 11 24.1 101.14     LegendNANA
17:00 Legend Double Dagger 5.7 -3.1 53 26 9 24.1 101.20     Mostly Cloudy
18:00 Legend Double Dagger 5.2 -2.9 56 29 4 24.1 101.26     LegendNANA
19:00 Legend Double Dagger 4.7 -2.4 60 31 5 24.1 101.34     LegendNANA
20:00 Legend Double Dagger 4.2 -2.4 62 27 5 24.1 101.32     Cloudy
21:00 Legend Double Dagger 3.4 -2.2 67 28 4 24.1 101.38     LegendNANA
22:00 Legend Double Dagger 2.4 -2.1 72 32 7 24.1 101.41     LegendNANA
23:00 Legend Double Dagger 2.0 -2.5 72 34 4 24.1 101.35     Cloudy

Notes on Data Quality.

Legend

  • E = Estimated
  • M = Missing
  • NA = Not Available
  • ‡ = Partner data that is not subject to review by the National Climate Archives
Date modified: